Погода в Босковице

Чехия     49°29′18″N   16°39′40″E
темп.,
°C
ветер,
м/с
пор.,
м/с
влажн.,
%
обл.,
%
осадки,
мм/ч
давл.,
гПа
погр.,
м
6 мая, чт
чт623:00+4з511745 0.0 1011897
02:00+2з412845 0.0 1013527
05:00+2з412894 0.0 1013453
08:00+5з4968100 0.0 1013671
11:00+8юз695699 0.1 10121839
14:00+9юз6959100 0.9 10111572
17:00+10юз5864100 0.4 10091385
20:00+6ю51176100 0.4 1009588
7 мая, пт
пт723:00+5ю51383100 0.1 1009569
02:00+4ююз4109385 0.3 1007455
05:00+4ююз41394100 0.0 1006488
08:00+5юз4119588 0.3 1007683
11:00+9з7116999 0.4 10081529
14:00+9зсз7125279 0.6 10092086
17:00+8сз6106764 0.3 10111411
20:00+4зсз41077100 0.4 1015884
8 мая, сб
сб823:00+2сз3108399 0.0 1018713
02:00+1зсз411875 0.0 1020474
05:00−2зюз22970 0.0 102231
08:00+4зсз26650 0.0 1022454
11:00+10зсз454353 0.0 10211925
14:00+12з353497 0.0 10192735
17:00+12зсз343495 0.0 10192375
20:00+6вюв227796 0.1 102116
9 мая, вс
вс923:00+5ююв2581100 0.0 102292
02:00+3ююв211835 0.0 1022269
05:00+4ююв4127569 0.0 1021426
08:00+8ююв5146333 0.0 1020594
11:00+13ю711525 0.0 1019857
14:00+16ю7114291 0.0 10171126
17:00+16ююв613537 0.0 10161113
20:00+12ююв714695 0.0 1016965
10 мая, пн
пн1023:00+10ююв716675 0.0 1016827
02:00+9ююв7176716 0.0 1015814
05:00+9ююв617745 0.0 1015731
08:00+11ююв715715 0.0 1015784
11:00+15ююв710611 0.0 1014919
14:00+18ююв795617 0.0 10131277
17:00+19ююв712645 0.0 10121300
20:00+16юв614790 0.0 1011958